Simultaneous Nadir Overpasses (SNOs) Predictions

Prediction of SNOs between METOP-B and TERRA Satellite Orbit:

Table of predicted SNOs for the next 14.0 days since TLE Epoch: 12/4/2021
Index Date (METOP-B) Time (METOP-B) Lat,Lon (METOP-B) SZA (METOP-B ) Date (TERRA) Time (TERRA) Lat,Lon (TERRA) SZA (TERRA ) Distance(km) Time Diff (sec)
1 12/05/2021 02:45:15 -81.24, 2.28 73.87 12/05/2021 02:46:25 -81.24, 2.32 73.84 0.74 70
2 12/05/2021 03:35:55 81.25, 169.97 106.18 12/05/2021 03:35:51 81.25, 170.08 106.19 1.87 4
3 12/07/2021 22:19:36 -81.24, 68.59 73.59 12/07/2021 22:20:35 -81.24, 68.66 73.56 1.19 59
4 12/07/2021 23:10:15 81.26,-123.33 106.51 12/07/2021 23:10:00 81.26,-123.24 106.51 1.67 15
5 12/10/2021 17:53:57 -81.25, 135.26 73.33 12/10/2021 17:54:45 -81.25, 135.30 73.30 0.61 48
6 12/10/2021 18:44:37 81.25, -57.06 106.72 12/10/2021 18:44:11 81.25, -57.00 106.71 1.00 26
7 12/13/2021 13:28:18 -81.25,-158.10 73.13 12/13/2021 13:28:55 -81.26,-158.13 73.11 0.64 37
8 12/13/2021 14:18:58 81.26, 9.58 106.92 12/13/2021 14:18:21 81.26, 9.55 106.90 0.46 37
9 12/16/2021 09:02:38 -81.26, -91.49 72.99 12/16/2021 09:03:04 -81.26, -91.61 72.99 2.08 26



Historial Predications of SNOs between METOP-B and TERRA
